Regional Weather Roundup
Issued by NWS

Home | Current Version | Previous Version | Text Only | Print | Product List | Glossary On
Versions: 1 2 3 4 5 6 7 8 9 10 11 12 13 14 15 16 17 18 19 20 21 22 23 24 25 26 27 28 29 30 31 32 33 34 35 36 37 38 39 40 41 42 43 44 45 46 47 48 49 50
000
ASUS43 KMKX 050211
RWRWI

WISCONSIN REGIONAL WEATHER ROUNDUP
NATIONAL WEATHER SERVICE MILWAUKEE/SULLIVAN WI
900 PM CDT SAT JUL 04 2015

NOTE: "FAIR" INDICATES FEW OR NO CLOUDS BELOW 12,000 FEET WITH NO
SIGNIFICANT WEATHER AND/OR OBSTRUCTIONS TO VISIBILITY.

WIZ001-002-006>008-014>016-023>028-050300-
NORTHWEST WISCONSIN

CITY           SKY/WX    TMP DP  RH WIND       PRES   REMARKS
SUPERIOR ARPT  PTCLDY    59  57  93 NE7       29.89S
ASHLAND        CLEAR     59  58  96 CALM      29.90F
HAYWARD        MOCLDY    73  63  70 CALM      29.91S HAZE
SIREN          CLEAR     75  64  70 S6        29.89S HAZE
CUMBERLAND     CLEAR     70  64  83 S5        29.92S HAZE
RICE LAKE      CLEAR     73  64  75 S5        29.92F HAZE
CHETEK         NOT AVBL
LADYSMITH      CLEAR     74  64  71 S3        29.94F HAZE
EAU CLAIRE     PTCLDY    76  64  66 S7        29.91S HAZE
MENOMONIE      CLEAR     73  65  76 SE5       29.91S HAZE
NEW RICHMOND   CLEAR     74  65  75 SE5       29.90F HAZE
OSCEOLA        CLEAR     74  66  76 S5        29.91F HAZE
$$

WIZ003>005-009-010-017-018-050300-
NORTH CENTRAL WISCONSIN

CITY           SKY/WX    TMP DP  RH WIND       PRES   REMARKS
MANITOWISH WTR MOCLDY    69  61  77 SE3       29.94F
ARBOR VITAE    MOCLDY    72  63  72 CALM      29.96S
WOODRUFF       MOCLDY    72  63  72 CALM      29.96S
RHINELANDER    MOCLDY    70  63  78 CALM      29.97F
EAGLE RIVER    MOCLDY    70  59  68 CALM      29.96S
LAND O LAKES   MOCLDY    64  60  87 CALM      29.97S
PHILLIPS       CLEAR     71  62  75 CALM      29.94S
TOMAHAWK       PTCLDY    67  63  84 CALM      29.97R HAZE
MEDFORD        MOCLDY    72  64  76 SW5       29.95S
MERRILL        PTCLDY    74  62  66 CALM      29.97R
$$

WIZ029-030-035-036-043>047-050300-
CENTRAL WISCONSIN

CITY           SKY/WX    TMP DP  RH WIND       PRES   REMARKS
WAUSAU         PTCLDY    76  64  66 CALM      29.94S HAZE
MOSINEE        NOT AVBL
MARSHFIELD     CLEAR     73  62  68 SW3       29.95S HAZE
STEVENS POINT  PTCLDY    74  62  66 SW7       29.96S
WAUPACA        PTCLDY    74  64  70 S3        29.96S
WAUTOMA        PTCLDY    74  64  70 CALM      29.97R
WISC RAPIDS    PTCLDY    73  63  70 S5        29.97R
CAMP DOUGLAS   CLEAR     72  70  92 S6        29.95S
$$

WIZ011>013-019>022-031-037>040-048>050-050300-
NORTHEAST WISCONSIN

CITY           SKY/WX    TMP DP  RH WIND       PRES   REMARKS
ANTIGO         PTCLDY    67  63  85 SE6       29.98S
SHAWANO        PTCLDY    73  65  75 SE6       29.96S
OCONTO         PTCLDY    67  63  86 SE3       29.97S
STURGEON BAY   PTCLDY    63  55  77 SE5       30.01S
GREEN BAY      PTCLDY    69  62  78 SE6       29.97R
MANITOWOC      PTCLDY    63  60  90 MISG      29.99S
APPLETON       MOCLDY    73  63  68 VRB5      29.97R
CLINTONVILLE   CLEAR     72  64  78 SE5       29.95S
OSHKOSH        PTCLDY    71  63  75 S3        29.96S
$$

WIZ032>034-041-042-053>061-050300-
SOUTHWEST WISCONSIN

CITY           SKY/WX    TMP DP  RH WIND       PRES   REMARKS
LA CROSSE      CLEAR     75  65  70 S6        29.93S
SPARTA         CLEAR     71  62  73 CALM      29.95S
VIROQUA        CLEAR     71  64  77 S5        29.97S
BOSCOBEL       CLEAR     71  65  81 CALM      29.96S
PRAIRIE DU CHI CLEAR     71  63  75 CALM      29.96S
PLATTEVILLE    CLEAR     72  62  71 S3        29.99R
$$

WIZ056-057-062-063-064-067-068-050300-
SOUTH CENTRAL WISCONSIN

CITY           SKY/WX    TMP DP  RH WIND       PRES   REMARKS
REEDSBURG      CLEAR     71  62  71 CALM      29.96S
BARABOO/DELLS  CLEAR     71  61  70 CALM      29.97S
LONE ROCK      CLEAR     69  62  78 CALM      29.97S
MINERAL POINT  CLEAR     73  57  56 SW3       29.99F
MADISON        PTCLDY    74  62  66 SW3       29.97S
MIDDLETON      CLEAR     73  60  63 SW3       29.99S
WATERTOWN      CLEAR     71  64  79 CALM      29.98R
MONROE         CLEAR     72  63  73 SW5       29.99S
JANESVILLE     CLEAR     75  63  64 CALM      29.98S
$$

WIZ051-052-058>065-066-070>072-050300-
SOUTHEAST WISCONSIN

CITY           SKY/WX    TMP DP  RH WIND       PRES   REMARKS
MILWAUKEE      MOCLDY    71  56  58 S6        29.98S
WAUKESHA       CLEAR     73  61  64 CALM      29.99S
MILWAUKEE/TIMM CLEAR     75  57  53 CALM      29.98S
RACINE         CLEAR     68  53  58 S5        30.00S
BURLINGTON     CLEAR     66  63  88 CALM      29.99R
KENOSHA        CLEAR     69  56  62 S6        29.99S
FOND DU LAC    PTCLDY    73  64  73 CALM      29.97R
SHEBOYGAN      PTCLDY    69  59  70 CALM      29.98R
WEST BEND      CLEAR     70  61  73 CALM      29.99R
JUNEAU         CLEAR     72  63  73 S5        29.99R
$$

LSZ147-162-050300-
LAKE SUPERIOR

STATION/POSITION TIME  TEMP    WIND        PRES    WAVE
                       AIR SEA DIR/SP/G            HT/PER
                 (UTC) (F)     (DEG/KT/KT) (MB)    (FT/S)
W MID LAKE BUOY  0150   47 39  100/ 10/ 12 1012.8F   0
DEVILS ISLAND    0200   58      60/  6/  7 1012.5F
SAXON HARBOR     0100   67        CALM     1012.5
$$

LMZ867-665-643>646-050300-
LAKE MICHIGAN

STATION/POSITION TIME  TEMP    WIND        PRES    WAVE
                       AIR SEA DIR/SP/G            HT/PER
                 (UTC) (F)     (DEG/KT/KT) (MB)    (FT/S)
CHAMBERS ISLAND  0100   69     120/  3/  6 1014.9S
S GREEN BAY BUOY 0200   69 70  140/  8/  8 1016.4
N MID LAKE BUOY  0150   60 55  190/  4/  6 1015.6R   0
NORTHPORT PIER   0100   65     170/  4/  6 1015.2R
SISTER BAY       0144   64     150/  7/ 10   N/A
ALGOMA LAKESHORE 0111          210/  5/  7   N/A
KEWAUNEE LAKESHO 0100   62     160/  4/  6 1014.8R
SHEBOYGAN LAKESH 0200   62     150/  7/  8 1015.4R
PORT WASHINGTON  0140   65      CALM  /  2 1015.9S
ATWATER BUOY     0200   65 61  180/  8/ 10 1016.6R
MILWAUKEE LAKESH 0100   66     150/ 11/ 13   N/A
KENOSHA   LAKESH 0200   68     190/  7/  8 1015.2R
$$

TC  - TEMPERATURE IN CELSIUS
VSB - VISIBILITY IN STATUTE MILES
WCI - WIND CHILL INDEX
HX  - HEAT INDEX




USA.gov is the U.S. government's official web portal to all federal, state and local government web resources and services.